KJ4AJP Weather Reports


time (UTC)temp
F
wind
direction
speed
knots
gust
knots
rain 1hr
in
rain 24hr
in
rain mn
in
humidity
%
barometer
mb
20201020024709 62 0 0.0 0.0 0.00 1.11 1.11 89 1014.7
20201020023807 63 0 0.0 0.0 0.00 1.11 1.11 89 1014.9
20201020022907 63 0 0.0 0.0 0.00 1.11 1.11 89 1014.8
20201020022020 64 0 0.0 0.0 0.00 1.11 1.11 89 1014.5
20201020021108 65 0 0.0 0.0 0.00 1.11 1.11 89 1014.2
20201020020213 70 0 0.0 0.0 0.00 1.11 1.11 89 1014.3
20201020015307 66 0 0.0 0.0 0.00 1.11 1.11 89 1014.2
20201020014408 66 0 0.0 0.0 0.00 1.11 1.11 89 1014.2
20201020013519 66 0 0.0 0.0 0.09 1.11 1.11 88 1014.1
20201020012607 66 0 0.0 0.0 0.09 1.11 1.11 88 1013.8
20201020011707 67 0 0.0 0.0 0.09 1.11 1.11 88 1014.0
20201020010807 67 0 0.0 0.0 0.09 1.11 1.11 88 1014.0
20201020005910 67 0 0.0 0.0 0.09 1.11 1.11 88 1014.1
20201020005007 67 0 0.0 0.0 0.09 1.11 1.11 88 1013.9
20201020004111 68 0 0.0 0.0 0.00 1.02 1.02 87 1014.1
20201020003207 68 0 0.0 0.0 0.00 1.02 1.02 88 1013.6
20201020002308 68 0 0.0 0.0 0.00 1.02 1.02 88 1013.7
20201020001407 68 0 0.0 0.0 0.00 1.02 1.02 87 1013.8
20201020000511 69 0 0.0 0.0 0.00 1.02 1.02 87 1013.3
20201019235607 69 0 0.0 0.0 0.00 1.02 1.02 87 1013.4
20201019234707 69 0 0.0 0.0 0.00 1.02 1.02 87 1013.5
20201019233810 69 0 0.0 0.0 0.00 1.02 1.02 87 1013.3
20201019232907 69 0 0.0 0.0 0.00 1.02 1.02 87 1013.4
20201019232010 69 0 0.0 0.0 0.00 1.92 1.02 87 1013.5
20201019231107 70 0 0.0 0.0 0.00 7.39 1.02 87 1013.3
20201019230207 70 0 0.0 0.0 0.00 7.39 1.02 87 1013.4
20201019225307 71 0 0.0 0.0 0.00 1.02 1.02 88 1013.3
20201019224408 71 0 0.0 0.0 0.00 1.02 1.02 88 1013.3
20201019223518 71 0 0.0 0.0 0.00 1.02 1.02 88 1013.1
20201019222612 71 0 0.0 0.0 0.00 1.02 1.02 88 1013.3
20201019221709 71 0 0.0 0.0 0.00 1.02 1.02 88 1013.3
20201019220809 71 0 0.0 0.0 0.00 1.02 1.02 88 1013.3
20201019215908 71 0 0.0 0.0 0.00 1.02 1.02 88 1013.2
20201019215011 71 0 0.0 0.0 0.00 1.02 1.02 89 1013.5
20201019214107 71 0 0.0 0.0 0.00 1.02 1.02 89 1013.5
20201019213207 71 0 0.0 0.0 0.00 1.02 1.02 89 1013.5
20201019212307 71 0 0.0 0.0 0.00 1.02 1.02 89 1013.5
20201019211407 71 0 0.0 0.0 0.00 1.02 1.02 89 1013.5
20201019210511 70 0 0.0 0.0 0.00 1.02 1.02 90 1013.6
20201019205607 70 0 0.0 0.0 0.00 1.02 1.02 90 1013.9
20201019204707 65 0 0.0 0.0 0.00 1.02 1.02 91 1013.6
20201019203811 65 0 0.0 0.0 0.00 1.02 1.02 91 1013.4
20201019202909 65 0 0.0 0.0 0.00 1.02 1.02 91 1013.5
20201019202011 65 0 0.0 0.0 0.00 1.02 1.02 91 1013.6
20201019201108 65 0 0.0 0.0 0.00 1.02 1.02 91 1013.5
20201019200208 65 0 0.0 0.0 0.00 1.02 1.02 91 1013.6
20201019195307 65 0 0.0 0.0 0.00 1.02 1.02 91 1013.4
20201019194407 64 0 0.0 0.0 0.00 1.02 1.02 91 1014.1
20201019193510 64 0 0.0 0.0 0.00 1.02 1.02 91 1013.8
20201019192617 63 0 0.0 0.0 0.00 1.03 1.02 91 1013.7
20201019191721 62 0 0.0 0.0 0.00 1.03 1.02 91 1013.9
20201019190807 62 0 0.0 0.0 0.00 1.03 1.02 91 1014.3
20201019185906 61 0 0.0 0.0 0.00 1.04 1.02 91 1014.6
20201019185021 61 0 0.0 0.0 0.00 1.04 1.02 91 1014.9
20201019184107 61 0 0.0 0.0 0.00 1.04 1.02 91 1014.8
20201019183209 60 0 0.0 0.0 0.00 1.04 1.02 91 1014.9
20201019182308 60 0 0.0 0.0 0.00 1.04 1.02 91 1015.4
20201019181407 59 0 0.0 0.0 0.00 1.05 1.02 91 1015.6
20201019180512 59 0 0.0 0.0 0.00 1.07 1.02 91 1015.7
20201019175607 59 0 0.0 0.0 0.00 1.09 1.02 91 1015.9
20201019174711 58 0 0.0 0.0 0.00 1.09 1.02 91 1016.1
20201019173806 58 0 0.0 0.0 0.01 1.10 1.02 91 1015.9
20201019172906 58 0 0.0 0.0 0.01 1.10 1.02 91 1016.1
20201019172021 58 0 0.0 0.0 0.01 1.11 1.02 91 1016.2
20201019171108 57 0 0.0 0.0 0.02 1.11 1.02 91 1016.1
20201019170208 57 0 0.0 0.0 0.02 1.11 1.02 90 1016.3
20201019165309 57 0 0.0 0.0 0.04 1.11 1.02 91 1016.7
20201019164408 58 0 0.0 0.0 0.04 1.11 1.02 91 1016.6
20201019163507 59 0 0.0 0.0 0.06 1.10 1.00 90 1016.8
20201019162607 60 0 0.0 0.0 0.17 1.11 1.00 91 1016.5
20201019161707 62 0 0.0 0.0 0.25 1.11 1.00 91 1016.5
20201019160809 62 0 0.0 0.0 0.30 1.11 0.99 91 1016.0
20201019155909 62 0 0.0 0.0 0.37 1.11 0.99 91 1015.6
20201019155009 61 0 0.0 0.0 0.38 1.11 0.98 90 1015.3
20201019154106 61 0 0.0 0.0 0.38 1.10 0.97 90 1015.5
20201019153211 60 0 0.0 0.0 0.31 1.00 0.87 90 1015.3
20201019152309 60 0 0.0 0.0 0.26 0.93 0.80 90 1015.4
20201019151413 60 0 0.0 0.0 0.22 0.86 0.73 90 1015.8
20201019150510 60 0 0.0 0.0 0.20 0.78 0.63 90 1015.6
20201019145606 60 0 0.0 0.0 0.19 0.77 0.61 90 1016.0
20201019144708 60 0 0.0 0.0 0.20 0.74 0.59 90 1015.8
20201019143808 60 0 0.0 0.0 0.20 0.73 0.58 90 1015.9
20201019142906 60 0 0.0 0.0 0.20 0.71 0.56 90 1015.6
20201019142006 60 0 0.0 0.0 0.20 0.70 0.53 89 1015.6
20201019141107 60 0 0.0 0.0 0.19 0.67 0.51 90 1015.5
20201019140207 59 0 0.0 0.0 0.13 0.59 0.43 89 1015.6
20201019135311 59 0 0.0 0.0 0.13 0.58 0.41 89 1015.6
20201019134409 59 0 0.0 0.0 0.12 0.54 0.38 89 1015.6
20201019133518 59 0 0.0 0.0 0.12 0.52 0.35 89 1015.6
20201019132628 59 0 0.0 0.0 0.15 0.51 0.34 89 1015.1
20201019131717 59 0 0.0 0.0 0.22 0.50 0.33 89 1015.2
20201019130806 60 0 0.0 0.0 0.24 0.48 0.31 89 1015.4
20201019125908 60 0 0.0 0.0 0.25 0.46 0.28 89 1015.6
20201019125015 60 0 0.0 0.0 0.24 0.45 0.27 89 1015.4
20201019124109 60 0 0.0 0.0 0.22 0.43 0.25 89 1015.1
20201019123208 60 0 0.0 0.0 0.20 0.39 0.21 89 1015.1
20201019122306 60 0 0.0 0.0 0.17 0.34 0.17 89 1015.6
20201019121407 60 0 0.0 0.0 0.11 0.28 0.11 88 1015.7
20201019120513 60 0 0.0 0.0 0.06 0.24 0.06 88 1015.5
20201019115606 60 0 0.0 0.0 0.04 0.21 0.04 88 1015.3
20201019114713 60 0 0.0 0.0 0.04 0.21 0.04 88 1015.2
20201019113807 60 0 0.0 0.0 0.02 0.20 0.02 88 1015.1
20201019112910 60 0 0.0 0.0 0.01 0.19 0.01 88 1015.2
20201019112013 60 0 0.0 0.0 0.00 0.18 0.00 88 1015.1
20201019111109 60 0 0.0 0.0 0.00 0.18 0.00 88 1015.1
20201019110212 60 0 0.0 0.0 0.00 0.20 0.00 87 1015.3
20201019105307 60 0 0.0 0.0 0.00 0.20 0.00 87 1015.1
20201019104409 60 0 0.0 0.0 0.00 0.20 0.00 87 1014.7
20201019103512 60 0 0.0 0.0 0.00 0.21 0.00 87 1014.5
20201019102606 60 0 0.0 0.0 0.00 0.21 0.00 87 1014.6
20201019101706 61 0 0.0 0.0 0.00 0.21 0.00 87 1014.6
20201019100806 61 0 0.0 0.0 0.00 0.21 0.00 87 1014.4
20201019095907 61 0 0.0 0.0 0.00 0.21 0.00 87 1014.7
20201019095007 61 0 0.0 0.0 0.00 0.21 0.00 87 1014.6
20201019094108 61 0 0.0 0.0 0.00 0.21 0.00 87 1014.6
20201019093206 61 0 0.0 0.0 0.00 0.21 0.00 87 1014.5
20201019092307 42 0 0.0 0.0 0.00 0.21 0.00 87 1014.4
20201019091407 61 0 0.0 0.0 0.00 0.22 0.00 87 1014.4
20201019090522 61 0 0.0 0.0 0.00 0.22 0.00 86 1014.4
20201019085606 61 0 0.0 0.0 0.00 0.22 0.00 86 1014.4
20201019084706 61 0 0.0 0.0 0.00 0.22 0.00 86 1014.4
20201019083807 62 0 0.0 0.0 0.00 0.22 0.00 85 1014.2
20201019082908 62 0 0.0 0.0 0.00 0.22 0.00 85 1014.2
20201019082014 63 0 0.0 0.0 0.00 0.22 0.00 85 1014.4
20201019081107 63 0 0.0 0.0 0.00 0.22 0.00 85 1014.2
20201019080208 63 0 0.0 0.0 0.00 0.22 0.00 85 1014.5
20201019075306 63 0 0.0 0.0 0.00 0.22 0.00 85 1014.5
20201019074406 81 0 0.0 0.0 0.00 0.22 0.00 86 1014.3
20201019073508 63 0 0.0 0.0 0.00 0.22 0.00 86 1014.4
20201019072606 63 0 0.0 0.0 0.00 0.22 0.00 87 1014.5
20201019071708 63 0 0.0 0.0 0.00 0.22 0.00 87 1014.8
20201019070808 63 0 0.0 0.0 0.00 0.22 0.00 88 1014.6
20201019065907 75 0 0.0 0.0 0.00 0.22 0.00 88 1014.7
20201019065008 62 0 0.0 0.0 0.00 0.22 0.00 89 1014.7
20201019064108 62 0 0.0 0.0 0.00 0.22 0.00 89 1014.8
20201019063207 62 0 0.0 0.0 0.00 0.22 0.00 90 1015.1
20201019062307 62 0 0.0 0.0 0.00 0.22 0.00 91 1014.8
20201019061406 61 0 0.0 0.0 0.00 0.22 0.00 91 1014.6
20201019060512 60 0 0.0 0.0 0.00 0.22 0.00 91 1014.7
20201019055606 60 0 0.0 0.0 0.00 0.22 0.00 91 1014.5
20201019054706 60 0 0.0 0.0 0.00 0.22 0.00 91 1014.6
20201019053809 59 0 0.0 0.0 0.00 0.22 0.00 91 1014.6
20201019052910 59 0 0.0 0.0 0.00 0.22 0.00 90 1014.9
20201019052006 59 0 0.0 0.0 0.00 0.22 0.00 90 1014.9
20201019051107 59 0 0.0 0.0 0.00 0.22 0.00 90 1015.1
20201019050209 58 0 0.0 0.0 0.00 0.22 0.00 90 1015.5
20201019045306 58 0 0.0 0.0 0.00 0.22 0.22 90 1015.5
20201019044412 58 0 0.0 0.0 0.00 0.22 0.22 90 1015.5
20201019043510 58 0 0.0 0.0 0.00 0.22 0.22 90 1015.6
20201019042607 59 0 0.0 0.0 0.00 0.22 0.22 90 1015.5
20201019041707 59 0 0.0 0.0 0.00 0.22 0.22 90 1015.5
20201019040806 59 0 0.0 0.0 0.00 0.22 0.22 90 1015.5
20201019035906 59 0 0.0 0.0 0.00 0.22 0.22 90 1015.4
20201019035010 59 0 0.0 0.0 0.00 0.22 0.22 90 1015.6
20201019034107 59 0 0.0 0.0 0.00 0.22 0.22 90 1015.6
20201019033206 59 0 0.0 0.0 0.00 0.22 0.22 90 1015.8
20201019032308 59 0 0.0 0.0 0.00 0.22 0.22 90 1015.9
20201019031406 59 0 0.0 0.0 0.00 0.22 0.22 90 1015.7
20201019030511 59 0 0.0 0.0 0.00 0.22 0.22 90 1015.8
20201019025611 58 0 0.0 0.0 0.00 0.22 0.22 90 1016.0